TimeMST,TemperatureF,Dew PointF,Humidity,Sea Level PressureIn,VisibilityMPH,Wind Direction,Wind SpeedMPH,Gust SpeedMPH,PrecipitationIn,Events,Conditions,WindDirDegrees,DateUTC
12:15 AM,41.0,24.8,53,29.79,10.0,NW,39.1,48.3,N/A,,Clear,320,2014-01-18 07:15:00
12:28 AM,41.0,24.8,53,29.80,10.0,NNW,40.3,54.1,N/A,,Squalls,330,2014-01-18 07:28:00
12:58 AM,41.2,24.6,52,29.83,10.0,NNW,40.3,56.4,0.00,,Clear,330,2014-01-18 07:58:00
1:13 AM,41.0,24.8,53,29.81,10.0,NNW,40.3,52.9,N/A,,Clear,330,2014-01-18 08:13:00
1:19 AM,41.0,24.8,53,29.82,10.0,NNW,40.3,54.1,N/A,,Squalls,330,2014-01-18 08:19:00
1:58 AM,40.3,24.6,54,29.87,10.0,NNW,39.1,51.8,0.00,,Clear,330,2014-01-18 08:58:00
2:18 AM,41.0,24.8,53,29.85,10.0,NNW,42.6,50.6,N/A,,Clear,330,2014-01-18 09:18:00
2:31 AM,41.0,24.8,53,29.84,10.0,NNW,46.0,62.1,N/A,,Squalls,330,2014-01-18 09:31:00
2:33 AM,41.0,24.8,53,29.85,10.0,NNW,41.4,62.1,N/A,,Squalls,330,2014-01-18 09:33:00
2:58 AM,39.9,25.2,56,29.89,10.0,NNW,42.6,54.1,0.01,,Clear,330,2014-01-18 09:58:00
3:03 AM,39.2,24.8,56,29.85,10.0,NNW,43.7,56.4,N/A,,Clear,330,2014-01-18 10:03:00
3:07 AM,39.2,24.8,56,29.86,10.0,NNW,44.9,59.8,N/A,,Clear,330,2014-01-18 10:07:00
3:22 AM,39.2,24.8,56,29.88,10.0,NNW,43.7,54.1,N/A,,Clear,330,2014-01-18 10:22:00
3:41 AM,39.2,24.8,56,29.88,10.0,NNW,43.7,56.4,N/A,,Clear,330,2014-01-18 10:41:00
3:58 AM,39.4,25.0,56,29.92,10.0,NNW,46.0,58.7,0.01,,Clear,330,2014-01-18 10:58:00
4:07 AM,39.2,24.8,56,29.88,10.0,NNW,41.4,50.6,N/A,,Clear,330,2014-01-18 11:07:00
4:34 AM,37.4,24.8,60,29.90,10.0,NNW,46.0,55.2,N/A,,Clear,330,2014-01-18 11:34:00
4:45 AM,37.4,23.0,56,29.92,10.0,NNW,38.0,55.2,N/A,,Clear,330,2014-01-18 11:45:00
4:58 AM,37.8,23.5,57,29.99,10.0,NNW,39.1,55.2,0.00,,Clear,330,2014-01-18 11:58:00
5:26 AM,37.4,23.0,56,29.93,10.0,NNW,39.1,51.8,N/A,,Clear,330,2014-01-18 12:26:00
5:47 AM,35.6,23.0,60,29.94,10.0,NNW,42.6,51.8,N/A,,Clear,340,2014-01-18 12:47:00
5:49 AM,35.6,23.0,60,29.93,10.0,NNW,44.9,57.5,N/A,,Clear,340,2014-01-18 12:49:00
5:58 AM,36.3,23.0,59,30.00,10.0,NNW,40.3,57.5,0.00,,Clear,330,2014-01-18 12:58:00
6:06 AM,35.6,23.0,60,29.94,10.0,NNW,41.4,55.2,N/A,,Clear,330,2014-01-18 13:06:00
6:23 AM,35.6,23.0,60,29.94,10.0,NNW,44.9,55.2,N/A,,Clear,330,2014-01-18 13:23:00
6:39 AM,35.6,23.0,60,29.96,10.0,NNW,38.0,55.2,N/A,,Clear,330,2014-01-18 13:39:00
6:58 AM,35.6,22.5,59,30.05,10.0,NNW,35.7,50.6,0.00,,Clear,330,2014-01-18 13:58:00
7:53 AM,35.6,23.0,60,30.01,10.0,NNW,35.7,48.3,N/A,,Squalls,330,2014-01-18 14:53:00
7:58 AM,35.6,22.3,58,30.09,10.0,NNW,32.2,48.3,N/A,,Clear,330,2014-01-18 14:58:00
8:58 AM,36.7,21.2,54,30.12,10.0,NNW,32.2,44.9,N/A,,Clear,340,2014-01-18 15:58:00
9:58 AM,38.8,18.3,44,30.13,10.0,NNW,35.7,40.3,N/A,,Clear,340,2014-01-18 16:58:00
10:36 AM,39.2,17.6,42,30.07,10.0,NNW,35.7,44.9,N/A,,Clear,340,2014-01-18 17:36:00
10:46 AM,39.2,17.6,42,30.06,10.0,NNW,36.8,46.0,N/A,,Clear,340,2014-01-18 17:46:00
10:54 AM,39.2,17.6,42,30.05,10.0,NNW,38.0,47.2,N/A,,Clear,340,2014-01-18 17:54:00
10:58 AM,39.2,17.6,42,30.12,10.0,NNW,36.8,47.2,0.00,,Clear,340,2014-01-18 17:58:00
11:00 AM,39.2,17.6,42,30.05,10.0,NNW,36.8,47.2,N/A,,Clear,340,2014-01-18 18:00:00
11:58 AM,41.5,16.7,37,30.12,10.0,NNW,32.2,39.1,0.00,,Clear,330,2014-01-18 18:58:00
12:58 PM,44.4,15.6,31,30.13,10.0,NW,23.0,-,N/A,,Clear,320,2014-01-18 19:58:00
1:58 PM,45.1,14.9,30,30.11,10.0,NNW,20.7,26.5,N/A,,Clear,330,2014-01-18 20:58:00
2:58 PM,45.5,14.7,29,30.10,10.0,North,18.4,-,N/A,,Clear,350,2014-01-18 21:58:00
3:58 PM,43.9,16.9,34,30.08,10.0,North,9.2,-,N/A,,Clear,360,2014-01-18 22:58:00
4:58 PM,36.7,18.7,48,30.09,10.0,West,5.8,-,N/A,,Clear,280,2014-01-18 23:58:00
5:58 PM,38.8,15.1,38,30.06,10.0,SSW,10.4,-,N/A,,Clear,210,2014-01-19 00:58:00
6:58 PM,36.3,13.8,40,30.04,10.0,SW,9.2,-,N/A,,Clear,230,2014-01-19 01:58:00
7:58 PM,33.4,15.4,48,30.01,10.0,West,5.8,-,N/A,,Clear,270,2014-01-19 02:58:00
8:58 PM,29.7,16.7,59,29.97,10.0,SW,8.1,-,N/A,,Clear,230,2014-01-19 03:58:00
9:58 PM,28.6,18.7,66,29.98,10.0,Variable,5.8,-,N/A,,Clear,0,2014-01-19 04:58:00
10:58 PM,32.4,17.1,53,29.95,10.0,West,10.4,-,N/A,,Clear,270,2014-01-19 05:58:00
11:58 PM,45.5,18.0,33,29.89,10.0,West,6.9,-,N/A,,Clear,260,2014-01-19 06:58:00